Date,TemperatureHighF,TemperatureAvgF,TemperatureLowF,DewpointHighF,DewpointAvgF,DewpointLowF,HumidityHigh,HumidityAvg,HumidityLow,PressureMaxIn,PressureMinIn,WindSpeedMaxMPH,WindSpeedAvgMPH,GustSpeedMaxMPH,PrecipitationSumIn
2013-1-1,39.4,34.8,24.4,10.6,5.2,-5.1,33,28,23,29.50,29.35,17,5,22,0.08
2013-1-2,32.4,23.7,13.6,4.3,-2.3,-8.3,45,32,25,29.68,29.47,10,2,12,0.00
2013-1-3,33.4,22.1,11.1,0.3,-4.5,-13.0,35,30,23,29.74,29.59,11,3,12,0.00
2013-1-4,34.9,27.8,25.2,6.6,1.4,-0.5,32,31,28,29.62,29.47,13,4,17,0.00
2013-1-5,46.9,33.4,24.6,10.1,6.5,2.7,50,33,22,29.80,29.50,11,3,17,0.04
2013-1-6,48.4,35.2,27.1,16.9,12.7,7.2,51,40,22,29.74,29.50,10,2,11,0.00
2013-1-7,45.1,34.0,23.7,17.1,10.3,3.8,53,38,22,29.97,29.53,11,2,18,0.00
2013-1-8,51.8,33.3,20.5,16.8,11.2,4.8,58,41,21,29.97,29.85,10,2,17,0.00
2013-1-9,44.6,35.6,23.7,21.3,15.6,9.0,55,44,29,29.94,29.71,12,2,13,0.00
2013-1-10,48.7,39.7,31.8,15.5,9.0,4.7,41,28,19,30.12,29.71,13,4,20,0.00
2013-1-11,41.0,34.7,27.1,36.8,19.3,8.3,85,55,32,30.09,29.71,4,1,7,0.31
2013-1-12,46.2,42.6,39.2,40.7,37.2,32.9,87,81,74,29.74,29.65,6,1,6,0.16
2013-1-13,48.4,44.8,40.6,44.3,40.3,35.6,92,84,76,29.71,29.56,8,1,9,0.00
2013-1-14,56.3,47.7,36.3,53.8,32.5,10.1,96,61,27,29.85,29.47,13,3,15,0.04
2013-1-15,39.2,36.0,33.4,20.7,11.5,7.4,56,37,29,29.91,29.77,8,2,11,0.12
2013-1-16,36.3,34.1,31.8,29.2,24.9,7.9,79,69,31,29.80,29.44,5,1,11,0.20
2013-1-17,47.3,37.0,29.8,27.8,13.8,1.0,79,40,24,29.68,29.41,12,3,14,0.39
2013-1-18,32.7,25.3,20.3,0.6,-4.6,-9.1,36,26,23,30.03,29.56,15,4,17,0.00
2013-1-19,45.3,35.9,20.3,16.1,8.2,-2.2,42,31,23,29.94,29.44,13,4,15,0.00
2013-1-20,54.7,41.4,28.8,16.9,9.4,-4.3,46,28,18,29.53,29.21,15,6,23,0.00
2013-1-21,31.1,27.0,21.4,13.6,1.0,-8.2,54,34,23,29.65,29.35,15,2,17,0.00
2013-1-22,26.8,20.0,12.2,7.1,-7.7,-15.4,48,29,24,29.68,29.32,21,6,22,0.00
2013-1-23,20.3,13.7,8.8,-9.9,-14.5,-18.4,27,26,25,29.77,29.62,11,4,17,0.00
2013-1-24,25.2,13.9,5.0,-6.6,-14.6,-21.7,29,26,24,29.85,29.62,17,5,26,0.00
2013-1-25,27.0,18.4,9.3,3.8,-8.6,-17.9,47,29,23,29.94,29.56,9,2,12,0.00
2013-1-26,27.9,19.7,14.0,3.7,-5.4,-12.8,50,33,23,29.83,29.50,17,5,20,0.00
2013-1-27,36.7,21.9,8.6,1.4,-5.7,-15.2,40,29,22,30.00,29.80,13,3,17,0.00
2013-1-28,34.7,28.1,18.1,28.1,13.5,-3.6,80,56,26,29.97,29.53,9,1,13,0.00
2013-1-29,38.7,35.8,33.6,32.6,27.6,20.8,83,73,50,29.77,29.53,6,1,8,0.16
2013-1-30,57.0,47.9,36.1,55.9,45.6,31.2,96,92,81,29.68,29.03,18,4,25,0.00
2013-1-31,60.6,46.3,29.5,56.9,21.9,-3.7,96,44,19,29.26,28.64,28,9,32,1.57
2013-2-1,35.4,28.1,23.2,0.4,-4.5,-8.2,26,23,22,29.71,29.26,17,7,23,0.00
2013-2-2,33.3,25.3,19.6,5.6,-4.3,-9.1,42,27,23,29.77,29.56,15,4,16,0.00
2013-2-3,35.4,26.0,18.3,7.4,2.2,-3.0,52,37,22,29.59,29.29,9,2,10,0.00
2013-2-4,35.6,26.9,21.2,6.3,-1.9,-7.8,44,29,22,29.50,29.26,19,5,19,0.00
2013-2-5,28.8,26.4,21.2,12.4,6.5,-7.6,53,43,29,29.56,29.44,6,1,6,0.00
2013-2-6,41.7,31.8,23.4,14.3,6.0,-5.9,55,36,21,29.88,29.44,13,3,15,0.04
2013-2-7,33.1,26.4,19.4,0.8,-5.2,-10.4,31,24,23,30.06,29.85,8,2,10,0.00
2013-2-8,32.5,29.2,25.0,27.5,16.2,-0.7,87,61,31,29.94,29.15,30,7,30,0.00
2013-2-9,32.7,24.4,16.9,24.5,10.7,-10.4,86,60,27,29.77,29.21,30,9,31,0.00
2013-2-10,45.1,24.6,14.2,6.5,-3.4,-14.1,45,30,20,29.94,29.77,11,3,17,0.24
2013-2-11,44.6,35.5,21.4,41.0,27.9,1.4,89,75,43,29.85,29.23,8,1,14,0.47
2013-2-12,48.6,40.7,36.5,37.9,12.4,5.4,85,33,21,29.53,29.23,15,5,26,0.04
2013-2-13,49.3,35.9,25.5,22.5,9.3,4.5,61,34,19,29.47,29.29,10,2,11,0.00
2013-2-14,50.5,36.9,27.5,25.9,13.2,5.3,72,41,19,29.59,29.29,12,2,13,0.00
2013-2-15,52.9,38.2,27.0,21.1,16.1,12.0,59,42,21,29.59,29.50,9,2,13,0.00
2013-2-16,41.2,34.2,28.4,27.0,11.1,-0.6,75,41,23,29.53,29.23,12,4,13,0.12
2013-2-17,33.6,24.8,16.5,2.4,-6.2,-12.4,31,25,23,29.38,29.12,26,9,30,0.00
2013-2-18,38.5,24.6,15.4,2.0,-6.4,-13.3,32,25,21,29.74,29.35,20,6,25,0.00
2013-2-19,45.1,36.1,22.6,39.3,16.9,-3.0,86,49,26,29.74,29.21,13,2,17,0.31
2013-2-20,39.7,30.9,24.3,14.9,-0.5,-7.3,38,26,22,29.44,29.23,24,8,27,0.00
2013-2-21,37.4,27.2,22.6,1.7,-3.7,-7.6,32,26,21,29.80,29.44,23,8,26,0.00
2013-2-22,40.6,30.5,21.7,13.1,4.8,-4.2,42,34,23,29.97,29.80,9,3,15,0.00
2013-2-23,38.5,36.0,34.0,33.2,26.0,12.5,82,68,41,29.85,29.59,9,3,12,0.16
2013-2-24,43.0,37.6,33.4,31.5,22.3,9.5,84,56,31,29.59,29.59,17,4,17,0.04
2013-2-25,49.6,38.4,31.5,15.7,10.7,6.2,47,33,19,29.59,29.59,13,4,15,0.00
2013-2-26,42.4,34.8,26.2,24.7,13.4,8.0,67,43,26,29.59,29.59,11,3,14,0.08
2013-2-27,44.6,40.9,34.5,39.8,34.1,21.7,85,77,60,29.59,29.59,20,5,23,1.61
2013-2-28,48.4,40.8,34.0,34.0,25.0,16.3,81,56,28,29.59,29.59,10,2,10,0.04
2013-3-1,47.7,39.8,36.0,23.1,13.9,8.3,54,35,22,29.59,29.59,12,5,15,0.00
2013-3-2,41.2,35.7,31.1,10.6,8.3,6.9,40,31,26,29.59,29.59,14,5,16,0.00
2013-3-3,36.7,31.6,27.9,11.8,5.8,0.9,41,33,24,29.59,29.59,14,6,17,0.00
2013-3-4,46.2,34.2,27.1,8.9,4.5,1.8,35,28,20,29.59,29.59,23,6,26,0.00
2013-3-5,50.9,39.2,30.2,12.6,8.1,4.5,37,28,19,29.59,29.59,17,4,17,0.00
2013-3-6,42.4,38.3,35.6,23.0,15.3,9.8,50,39,29,29.59,29.59,25,8,30,0.00
2013-3-7,38.7,35.0,33.1,26.2,17.1,10.2,74,49,31,29.62,29.53,21,8,26,0.00
2013-3-8,38.5,34.6,30.7,25.8,19.6,9.0,78,56,30,29.71,29.50,11,5,14,0.00
2013-3-9,58.8,41.1,31.1,14.1,10.2,6.7,45,29,17,29.85,29.68,13,4,19,0.51
2013-3-10,49.5,37.3,24.6,21.6,15.2,9.9,57,42,26,29.88,29.83,9,3,10,0.00
2013-3-11,54.1,44.2,36.7,39.5,27.5,21.4,81,54,29,29.83,29.68,13,4,14,0.00
2013-3-12,55.0,50.7,42.3,51.8,43.7,23.0,90,78,46,29.68,29.26,15,6,17,2.01
2013-3-13,53.6,42.9,33.6,23.7,13.1,6.0,56,31,18,29.44,29.35,16,4,16,0.00
2013-3-14,38.7,33.6,29.5,13.6,1.5,-3.7,41,25,21,29.44,29.35,23,7,27,0.00
2013-3-15,45.3,35.6,26.8,13.7,2.9,-6.0,35,25,20,29.47,29.26,13,5,20,0.00
2013-3-16,42.1,35.1,30.7,15.5,7.9,-1.0,44,32,21,29.41,29.26,19,3,20,0.00
2013-3-17,40.6,32.6,26.2,13.7,2.8,-3.9,51,29,21,29.77,29.38,14,4,17,0.00
2013-3-18,35.4,29.3,22.6,23.3,1.4,-7.8,74,33,22,29.91,29.59,10,3,14,0.00
2013-3-19,40.5,35.2,30.9,29.1,24.5,8.7,79,66,33,29.62,29.23,14,2,15,1.54
2013-3-20,49.6,36.1,28.0,10.5,5.9,3.1,42,28,19,29.38,29.26,15,2,20,0.12
2013-3-21,40.3,34.4,30.2,14.6,5.5,-1.6,47,30,21,29.35,29.18,10,3,14,0.00
2013-3-22,45.9,34.7,25.2,8.6,2.9,-4.8,32,26,20,29.35,29.18,14,5,23,0.00
2013-3-23,52.5,39.6,32.4,10.4,5.8,0.4,31,25,18,29.38,29.26,17,7,30,0.00
2013-3-24,49.3,37.8,27.0,10.7,5.7,-0.9,42,26,19,29.38,29.18,14,3,19,0.00
2013-3-25,44.2,39.2,34.0,14.3,10.3,6.9,43,30,23,29.21,29.00,18,5,20,0.00
2013-3-26,56.5,42.2,34.0,13.8,9.9,5.1,35,27,17,29.35,29.06,12,4,18,0.00
2013-3-27,57.2,43.0,31.1,13.7,8.8,4.7,43,25,17,29.41,29.29,15,4,19,0.00
2013-3-28,58.1,43.6,33.8,19.5,12.8,5.3,41,29,19,29.56,29.38,15,4,17,0.00
2013-3-29,60.6,47.5,38.5,16.8,11.9,7.6,32,24,17,29.59,29.53,11,5,15,0.00
2013-3-30,72.7,46.7,32.5,20.8,12.3,5.6,47,26,14,29.59,29.50,14,3,15,0.00
2013-3-31,55.8,44.1,30.0,38.9,16.3,7.2,79,35,18,29.59,29.09,14,4,19,0.12
2013-4-1,62.6,48.7,36.5,39.6,23.3,1.0,77,42,20,29.32,29.06,20,5,22,0.04
2013-4-2,51.4,37.7,30.9,10.6,2.1,-1.4,25,22,19,29.47,29.29,21,7,26,0.00
2013-4-3,53.6,38.5,29.7,11.1,2.3,-3.0,25,21,18,29.68,29.41,29,7,29,0.00
2013-4-4,56.5,40.9,27.1,17.6,6.5,-3.0,40,24,17,29.77,29.53,13,4,15,0.00
2013-4-5,68.7,48.0,38.7,19.2,12.2,4.1,40,25,15,29.56,29.18,13,4,20,0.00
2013-4-6,68.9,41.7,32.9,19.4,4.9,-1.0,30,21,15,29.77,29.41,23,5,25,0.00
2013-4-7,58.3,45.2,32.9,32.8,18.7,5.7,58,36,20,29.74,29.41,19,5,23,0.00
2013-4-8,77.4,55.1,38.8,34.3,25.8,18.5,74,38,15,29.53,29.35,12,3,13,0.00
2013-4-9,90.3,64.1,48.6,44.9,29.8,18.5,84,34,12,29.50,29.35,16,4,22,0.00
2013-4-10,74.3,59.6,51.4,47.5,33.3,21.9,75,40,21,29.44,29.32,11,3,27,0.31
2013-4-11,59.9,53.5,46.6,51.4,33.9,17.0,84,50,27,29.53,29.29,10,4,12,0.00
2013-4-12,46.8,41.9,39.0,35.0,24.2,8.1,80,54,22,29.53,29.15,23,6,25,0.47
2013-4-13,59.4,47.0,37.6,32.4,22.1,14.4,78,42,19,29.35,29.15,11,3,15,0.08
2013-4-14,64.0,49.7,41.7,26.1,15.8,6.7,49,28,16,29.59,29.32,20,4,20,0.00
2013-4-15,63.7,47.3,36.1,19.6,15.0,7.7,47,28,18,29.83,29.59,10,3,13,0.00
2013-4-16,63.3,52.4,39.4,44.8,30.9,18.5,67,45,27,29.80,29.56,17,5,22,0.00
2013-4-17,81.5,58.7,48.7,49.2,24.4,14.1,77,30,14,29.77,29.53,15,4,19,0.00
2013-4-18,60.4,52.0,41.7,36.4,23.5,15.3,54,35,19,29.80,29.56,16,4,19,0.00
2013-4-19,71.2,60.9,52.2,59.2,51.8,36.4,96,75,34,29.56,29.15,19,6,28,0.00
2013-4-20,70.9,54.5,43.0,57.3,23.8,6.5,85,36,14,29.68,29.12,17,6,22,0.24
2013-4-21,72.9,45.0,34.7,20.9,7.8,1.6,29,22,14,29.97,29.68,13,4,18,0.00
2013-4-22,55.0,44.7,33.6,21.0,15.2,8.2,52,32,18,30.06,29.91,16,4,17,0.00
2013-4-23,48.6,42.7,37.9,26.1,20.3,12.3,54,41,32,29.91,29.47,13,5,15,0.00
2013-4-24,74.1,55.3,43.5,43.0,28.4,22.7,70,39,16,29.50,29.32,13,5,15,0.00
2013-4-25,84.9,56.8,44.8,46.7,21.2,9.7,78,29,13,29.71,29.29,15,4,19,0.00
2013-4-26,81.0,53.9,36.0,27.3,17.0,10.0,50,25,14,29.85,29.68,12,3,13,0.00
2013-4-27,74.1,55.6,39.0,25.1,15.8,9.5,37,21,14,29.85,29.71,12,3,15,0.00
2013-4-28,69.8,55.8,42.3,38.2,21.7,10.9,77,30,16,29.74,29.62,14,3,15,0.00
2013-4-29,59.4,54.5,50.4,34.2,25.8,15.5,49,34,20,29.68,29.59,11,3,13,0.00
2013-4-30,73.2,57.2,47.1,31.0,20.7,10.7,50,26,14,29.80,29.62,12,2,12,0.00
2013-5-1,74.8,55.2,37.6,26.7,20.4,13.7,50,27,16,29.94,29.77,11,3,17,0.00
2013-5-2,84.6,60.4,40.6,33.5,25.1,19.6,57,30,13,29.91,29.77,11,2,14,0.00
2013-5-3,79.0,57.9,50.5,32.2,21.7,13.5,46,25,15,29.88,29.80,13,4,17,0.00
2013-5-4,70.3,56.1,44.6,40.4,27.6,20.3,73,37,17,29.80,29.65,10,3,14,0.00
2013-5-5,68.4,51.7,37.4,28.8,24.3,18.6,56,36,17,29.71,29.62,11,2,11,0.00
2013-5-6,80.6,57.2,42.8,37.2,30.9,24.1,73,41,14,29.65,29.59,11,3,13,0.00
2013-5-7,81.3,62.0,45.3,45.2,35.7,27.6,66,40,19,29.62,29.53,13,3,13,0.00
2013-5-8,66.7,61.2,57.7,60.0,53.5,42.0,91,76,49,29.56,29.44,13,2,15,0.75
2013-5-9,64.4,59.2,54.5,55.0,50.5,43.4,89,73,51,29.44,29.29,6,1,10,0.98
2013-5-10,79.9,65.5,49.1,50.6,38.1,29.1,80,42,17,29.38,29.32,9,2,13,0.00
2013-5-11,65.8,62.4,59.4,59.3,53.9,40.6,89,74,44,29.32,29.06,12,2,16,0.35
2013-5-12,81.5,62.4,51.3,56.1,33.7,9.7,86,43,14,29.23,29.00,0,0,0,0.08
2013-5-13,69.4,51.9,40.6,21.4,13.0,8.5,41,21,15,29.41,29.23,0,0,0,0.00
2013-5-14,74.7,51.4,37.9,25.0,15.7,10.0,43,26,13,29.38,29.32,0,0,0,0.00
2013-5-15,70.0,52.4,36.3,39.4,28.2,18.4,58,41,22,29.38,29.03,0,0,0,0.00
2013-5-16,95.9,67.0,46.9,44.0,32.5,23.2,74,34,11,29.15,29.00,0,0,0,0.00
2013-5-17,84.0,62.1,52.3,37.7,24.7,18.8,48,25,14,29.47,29.15,0,0,0,0.00
2013-5-18,72.1,59.0,46.4,36.7,29.7,22.8,55,35,17,29.53,29.47,0,0,0,0.00
2013-5-19,58.6,57.0,54.7,53.6,49.5,36.5,86,76,48,29.53,29.35,0,0,0,0.28
2013-5-20,92.5,68.8,57.7,57.8,49.4,32.3,91,58,12,29.35,29.18,0,0,0,0.04
2013-5-21,95.2,75.3,59.7,57.2,48.4,35.8,80,45,14,29.21,29.06,0,0,0,0.00
2013-5-22,88.7,67.0,57.9,59.3,52.2,39.1,83,62,18,29.15,29.06,0,0,0,0.31
2013-5-23,74.1,67.4,64.9,62.5,59.8,50.5,87,77,44,29.09,28.94,0,0,0,0.75
2013-5-24,67.3,58.1,46.6,61.1,48.4,33.7,88,71,45,29.00,28.82,0,0,0,0.51
2013-5-25,48.7,46.1,43.3,38.0,33.2,22.4,77,61,37,28.97,28.88,0,0,0,0.83
2013-5-29,87.1,75.8,69.1,59.0,48.8,39.0,69,41,19,29.21,29.12,8,2,10,0.24
2013-5-30,108.3,79.7,62.4,58.4,46.2,31.0,81,39,8,29.23,29.15,8,2,13,0.00
2013-5-31,101.8,79.7,65.1,59.2,46.1,31.6,73,37,10,29.23,29.12,11,2,13,0.00
2013-6-1,98.6,79.3,63.5,55.6,47.5,36.7,71,37,13,29.15,29.09,13,3,15,0.00
2013-6-2,90.3,77.2,68.0,60.7,50.2,40.8,73,41,18,29.09,28.94,11,3,17,0.00
2013-6-3,81.1,71.2,64.4,63.4,51.5,28.8,85,54,22,28.97,28.88,8,2,14,1.69
2013-6-4,95.5,65.2,53.8,36.9,25.9,21.0,51,24,11,29.21,28.97,12,5,12,0.00
2013-6-5,82.6,64.4,50.7,37.3,28.0,21.0,51,27,14,29.26,29.18,5,5,5,0.00
2013-6-6,71.4,61.6,52.2,53.7,40.4,28.4,79,49,22,29.23,29.09,5,5,5,0.20
2013-6-7,61.7,59.7,56.7,56.8,53.8,47.3,86,81,70,29.12,28.73,5,5,5,2.56
2013-6-8,82.9,66.3,54.7,52.1,44.4,36.0,85,51,19,29.12,28.64,5,5,5,0.24
2013-6-9,90.7,69.5,56.1,64.8,41.4,27.6,90,43,12,29.23,29.09,5,5,5,0.00
2013-6-10,73.2,63.9,60.3,61.0,52.7,45.3,87,68,38,29.21,28.94,5,5,5,1.14
2013-6-11,82.2,68.5,60.8,61.9,51.3,35.7,89,59,23,28.97,28.64,5,5,5,0.79
2013-6-12,75.7,66.7,58.3,42.1,33.8,27.0,54,31,18,28.94,28.70,5,5,5,0.00
2013-6-13,60.6,57.5,54.0,54.4,48.7,39.1,84,73,50,28.91,28.59,5,5,5,1.77
2013-6-14,72.9,60.0,52.3,55.0,43.6,28.5,83,59,22,28.91,28.59,5,4,5,0.83
2013-6-15,85.1,68.0,57.2,53.3,37.9,24.4,81,40,13,29.06,28.91,0,0,0,0.00
2013-6-16,80.1,67.9,54.0,51.6,41.4,29.7,73,42,18,29.06,28.79,0,0,0,0.00
2013-6-17,92.1,73.1,60.1,57.1,47.7,33.7,74,46,14,29.00,28.85,10,4,13,0.16
2013-6-18,83.1,69.1,61.2,59.9,52.7,41.5,82,60,23,28.97,28.88,8,8,8,0.91
2013-6-19,82.9,65.5,55.9,55.5,36.0,23.1,79,39,14,29.21,28.94,8,8,8,0.00
2013-6-20,84.2,67.3,52.7,45.9,36.6,28.1,69,35,13,29.29,29.18,8,8,8,0.00
2013-6-21,88.5,71.2,56.1,47.1,39.3,33.6,68,35,15,29.29,29.23,10,6,12,0.00
2013-6-22,87.6,72.2,57.9,47.8,39.1,32.2,64,33,16,29.29,29.23,10,3,12,0.00
2013-6-23,91.4,76.0,61.3,60.3,47.4,39.0,71,40,18,29.26,29.09,13,3,17,0.00
2013-6-24,97.0,79.5,69.4,67.4,52.7,37.3,82,47,13,29.12,28.94,12,4,12,0.00
2013-6-25,97.5,80.0,66.6,62.6,49.8,37.4,79,41,13,29.03,28.79,10,10,10,0.00
2013-6-26,85.3,77.7,71.4,65.6,52.8,46.3,77,44,26,28.85,28.76,10,10,10,0.00
2013-6-27,82.6,73.6,68.7,67.9,60.3,49.5,91,66,33,28.82,28.59,10,10,10,0.51
2013-6-28,88.5,76.5,70.9,70.9,58.8,45.5,94,58,23,28.61,28.44,10,10,10,0.08
2013-6-29,88.7,75.8,68.5,64.7,54.6,40.5,79,52,20,28.76,28.50,10,10,10,0.00
2013-6-30,82.6,73.8,69.6,69.5,63.7,51.9,91,73,35,28.85,28.73,10,10,10,0.00
2013-7-1,75.9,73.8,72.3,70.0,67.7,64.2,89,82,67,29.00,28.82,10,10,10,0.39
2013-7-2,85.6,75.8,72.7,69.4,63.2,49.4,89,68,29,29.12,29.00,10,10,10,0.04
2013-7-3,89.2,77.9,71.1,66.7,58.7,46.5,83,56,23,29.15,29.03,10,10,10,0.00
2013-7-4,98.2,82.6,74.5,71.9,55.5,41.5,84,45,16,29.12,28.97,10,10,10,0.00
2013-7-5,102.2,83.4,72.1,64.9,52.8,38.5,76,38,12,17.72,17.72,10,10,10,0.00
2013-7-6,102.6,83.7,73.2,64.8,53.0,38.3,75,38,12,17.72,17.72,10,10,10,0.00
2013-7-7,99.1,85.1,73.9,66.1,54.6,42.4,76,39,16,17.72,17.72,10,10,10,0.00
2013-7-8,101.1,82.2,70.9,57.0,46.6,32.8,61,31,10,17.72,17.72,10,10,10,0.00
2013-7-9,90.5,77.6,68.9,67.7,55.7,43.1,76,50,20,17.72,17.72,10,10,10,0.16
2013-7-10,89.2,78.5,72.1,70.0,62.1,51.0,86,60,29,17.72,17.72,10,10,10,0.51
2013-7-11,88.5,76.8,69.6,72.1,59.1,39.6,87,59,19,17.72,17.72,10,10,10,0.79
2013-7-12,78.8,71.9,65.1,59.6,47.4,41.3,71,43,29,17.72,17.72,10,10,10,0.04
2013-7-13,78.3,71.4,64.9,70.7,61.1,51.2,88,71,47,17.72,17.72,10,10,10,0.04
2013-7-14,96.6,81.6,73.9,72.3,58.1,41.6,90,51,17,17.72,17.72,10,10,10,0.00
2013-7-15,99.9,83.3,73.2,64.1,51.5,37.3,71,37,13,17.72,17.72,10,10,10,0.00
2013-7-16,99.3,82.8,72.9,59.0,46.9,31.8,56,31,10,17.72,17.72,10,10,10,0.00
2013-7-17,105.3,84.1,71.4,64.2,51.0,34.1,73,37,9,29.74,17.72,10,10,10,0.00
2013-7-18,105.1,86.5,74.8,63.1,52.3,39.1,66,34,12,29.74,29.62,10,10,10,0.00
2013-7-19,102.9,87.8,75.4,68.6,53.9,38.8,77,37,12,29.62,29.44,10,10,10,0.00
2013-7-20,99.3,84.5,76.1,62.6,52.0,38.2,60,35,13,29.53,29.38,10,10,10,0.00
2013-7-21,94.6,77.9,68.9,56.2,46.1,31.2,56,35,11,29.62,29.50,10,10,10,0.00
2013-7-22,83.5,74.4,68.4,69.9,60.2,51.4,87,63,33,29.62,29.50,10,10,10,0.04
2013-7-23,89.8,78.1,72.9,72.3,62.3,46.0,91,64,25,29.50,29.21,10,10,10,1.10
2013-7-24,84.9,75.0,64.9,68.1,49.9,30.5,88,47,18,29.59,29.29,10,10,10,0.00
2013-7-25,65.5,62.6,59.7,53.1,38.2,29.2,74,42,31,29.71,29.59,10,10,10,0.04
2013-7-26,93.0,69.9,61.0,56.0,48.0,31.6,81,51,12,29.71,29.59,10,10,10,0.12
2013-7-27,90.0,73.2,63.0,60.0,46.3,32.8,82,45,15,29.71,29.65,10,10,10,0.00
2013-7-28,81.0,72.0,64.2,63.6,52.2,38.6,82,53,22,29.65,29.56,10,10,10,0.00
2013-7-29,93.9,76.5,68.4,67.2,49.5,31.0,86,47,11,29.74,29.59,10,10,10,0.00
2013-7-30,91.9,72.0,59.7,47.1,37.0,29.1,54,30,12,29.80,29.74,10,10,10,0.00
2013-7-31,88.3,71.7,59.5,49.9,40.9,28.1,64,37,13,29.80,29.68,10,10,10,0.00
2013-8-1,77.9,68.2,63.0,64.7,55.3,43.0,87,65,30,29.71,29.50,10,10,10,0.35
2013-8-2,92.5,74.9,66.9,65.9,48.4,29.4,89,46,12,29.56,29.44,10,10,10,0.04
2013-8-3,86.0,71.1,64.9,59.3,47.9,37.5,71,46,19,29.56,29.50,10,10,10,0.08
2013-8-4,84.0,70.0,60.1,56.8,41.7,29.1,79,41,16,29.56,29.44,10,10,10,0.00
2013-8-5,87.1,67.1,56.7,44.0,31.6,21.6,62,29,13,29.71,29.56,10,10,10,0.00
2013-8-6,86.0,68.0,54.9,47.0,37.4,29.5,62,35,13,29.80,29.68,10,10,10,0.00
2013-8-7,77.2,68.6,57.6,53.5,45.0,34.4,70,45,22,29.80,29.74,10,10,10,0.00
2013-8-8,81.7,73.3,69.3,65.3,59.5,51.5,84,64,36,29.74,29.68,10,10,10,0.00
2013-8-9,85.1,75.6,71.6,73.9,66.7,52.2,89,76,33,29.68,29.44,10,5,10,0.67
2013-8-10,92.5,75.3,65.1,67.1,46.3,27.5,89,44,12,29.71,29.50,0,0,0,0.00
2013-8-11,91.6,70.5,55.9,49.9,35.6,24.5,57,31,12,29.74,29.65,0,0,0,0.00
2013-8-12,92.3,74.3,64.2,55.9,41.8,28.4,73,36,12,29.68,29.59,0,0,0,0.00
2013-8-13,78.1,70.7,64.9,67.2,56.8,43.1,88,64,30,29.59,29.35,0,0,0,0.12
2013-8-14,77.4,66.8,57.6,53.8,34.6,24.4,61,33,15,29.65,29.38,0,0,0,0.00
2013-8-15,86.0,64.9,51.6,42.9,34.5,24.4,67,37,13,29.77,29.65,0,0,0,0.00
2013-8-16,82.6,66.9,54.0,48.3,36.7,25.1,69,37,14,29.85,29.74,0,0,0,0.00
2013-8-17,88.3,68.9,56.3,50.2,40.0,26.4,79,40,13,29.94,29.83,0,0,0,0.00
2013-8-18,77.4,67.7,61.0,55.6,45.4,32.2,76,48,20,29.91,29.74,0,0,0,0.00
2013-8-19,79.2,69.4,58.8,59.5,47.0,34.4,78,50,21,29.74,29.65,0,0,0,0.00
2013-8-20,91.0,73.2,61.0,59.5,44.8,28.1,80,44,12,29.80,29.68,0,0,0,0.00
2013-8-21,94.3,75.6,62.2,56.7,45.1,30.5,77,40,11,29.83,29.71,0,0,0,0.00
2013-8-22,81.5,72.4,65.7,67.4,58.4,50.5,82,63,34,29.71,29.53,0,0,0,0.59
2013-8-23,81.0,72.1,63.0,66.5,42.0,28.0,86,38,15,29.77,29.50,0,0,0,0.00
2013-8-24,89.2,67.7,56.5,43.4,32.8,24.6,51,30,13,30.00,29.74,0,0,0,0.00
2013-8-25,94.3,69.4,53.6,42.6,35.4,25.1,63,33,11,30.00,29.83,0,0,0,0.00
2013-8-26,77.9,70.2,63.7,63.9,48.3,38.5,81,48,25,29.85,29.56,0,0,0,0.16
2013-8-27,89.8,74.7,69.4,66.3,56.2,38.8,87,58,18,29.56,29.44,0,0,0,0.63
2013-8-28,88.3,74.7,65.5,61.9,53.4,39.3,76,52,19,29.56,29.47,0,0,0,0.00
2013-8-29,80.4,71.8,67.3,66.3,53.0,39.2,88,55,23,29.68,29.56,0,0,0,0.00
2013-8-30,92.5,73.9,66.0,61.5,50.5,36.3,72,48,14,29.68,29.50,0,0,0,0.00
2013-8-31,84.9,76.4,70.3,65.5,58.4,49.4,81,57,30,29.53,29.47,0,0,0,0.00
2013-9-1,83.5,76.3,72.7,68.5,62.2,50.5,84,64,32,29.56,29.50,0,0,0,0.00
2013-9-2,86.7,74.7,70.0,71.4,64.8,50.7,89,74,29,29.53,29.35,0,0,0,0.91
2013-9-3,83.5,71.2,62.1,67.6,54.7,35.7,93,61,20,29.53,29.35,0,0,0,0.12
2013-9-4,91.4,69.1,56.5,49.2,40.5,27.2,75,41,12,29.59,29.50,0,0,0,0.00
2013-9-5,75.0,65.5,54.0,55.0,36.9,21.0,72,40,16,29.77,29.53,0,0,0,0.00
2013-9-6,83.3,60.1,48.9,32.2,27.5,20.6,52,31,14,29.85,29.74,0,0,0,0.00
2013-9-7,82.2,63.5,46.9,42.3,32.5,24.5,57,35,14,29.74,29.53,0,0,0,0.00
2013-9-8,78.3,68.2,56.8,51.2,36.6,23.1,65,33,15,29.74,29.44,0,0,0,0.00
2013-9-9,75.7,60.4,47.5,42.0,31.7,22.9,67,37,15,29.85,29.74,0,0,0,0.00
2013-9-10,62.8,60.0,57.7,50.4,45.4,41.4,64,59,53,29.80,29.77,0,0,0,0.00
2013-9-20,80.2,67.7,56.3,43.9,37.5,26.6,63,37,15,29.68,29.65,0,0,0,0.00
2013-9-21,73.4,64.8,54.7,63.9,50.5,42.0,83,61,38,29.65,29.32,0,0,0,0.08
2013-9-22,69.6,63.0,52.3,63.4,39.9,20.8,82,48,20,29.53,29.29,0,0,0,1.26
2013-9-23,65.5,53.6,46.0,32.8,24.3,16.5,56,33,18,29.65,29.50,0,0,0,0.00
2013-9-24,77.0,55.0,41.0,36.0,27.0,20.7,60,37,15,29.65,29.50,0,0,0,0.00
2013-9-25,72.5,57.2,44.8,40.4,32.8,23.2,73,44,16,29.56,29.50,0,0,0,0.00
2013-9-26,73.6,61.2,53.6,47.9,38.1,27.4,72,46,18,29.74,29.56,0,0,0,0.00
2013-9-27,63.7,57.0,48.4,46.6,37.7,29.5,75,51,28,29.88,29.71,0,0,0,0.00
2013-9-28,73.9,59.7,49.3,46.0,37.4,26.3,80,49,18,29.91,29.85,0,0,0,0.00
2013-9-29,72.1,57.3,48.4,52.7,37.3,25.7,85,52,19,29.85,29.71,0,0,0,0.00
2013-9-30,75.7,57.9,46.0,41.7,34.6,26.3,74,46,18,29.71,29.62,0,0,0,0.00
2013-10-1,79.3,61.8,48.6,45.8,38.3,30.0,78,47,17,29.62,29.53,0,0,0,0.00
2013-10-2,83.7,65.2,51.1,53.4,43.0,34.5,72,49,19,29.65,29.53,0,0,0,0.00
2013-10-3,77.9,63.3,50.2,50.7,39.4,25.3,73,47,15,29.74,29.65,0,0,0,0.00
2013-10-4,83.7,66.4,57.2,53.8,48.6,39.8,75,56,22,29.71,29.62,0,0,0,0.00
2013-10-5,78.6,66.8,61.3,60.5,50.0,42.5,83,57,28,29.74,29.68,0,0,0,0.00
2013-10-6,65.8,63.3,61.7,61.9,59.0,53.6,93,86,72,29.77,29.68,0,0,0,0.08
2013-10-7,74.1,67.7,58.8,67.3,58.3,40.0,94,74,46,29.71,29.41,0,0,0,0.31
2013-10-8,66.9,56.2,48.6,44.4,30.6,18.2,75,42,17,29.94,29.59,0,0,0,0.00
2013-10-9,62.8,53.0,44.2,34.8,28.9,21.4,62,41,21,30.00,29.91,0,0,0,0.00
2013-10-10,61.9,54.8,49.1,38.0,34.6,31.9,65,47,36,29.91,29.71,0,0,0,0.00
2013-10-11,68.5,61.7,55.9,44.9,39.0,34.5,59,44,32,29.74,29.68,10,2,13,0.00
2013-10-12,71.2,60.9,52.9,38.3,32.2,26.3,46,35,22,29.94,29.74,13,4,17,0.00
2013-10-13,65.7,56.4,50.5,40.9,33.5,26.8,69,44,24,30.00,29.91,10,2,14,0.00
2013-10-14,67.3,53.5,42.4,37.5,32.4,25.2,74,47,22,29.97,29.85,6,1,9,0.00
2013-10-15,71.8,56.8,46.9,44.7,32.2,15.8,83,45,15,29.85,29.74,9,1,11,0.00
2013-10-16,64.9,56.8,47.3,51.8,37.6,28.1,73,51,29,29.74,29.53,5,1,6,0.00
2013-10-17,77.0,65.1,60.4,57.9,48.7,32.4,86,61,20,29.53,29.32,8,2,11,0.00
2013-10-18,70.5,61.3,48.6,58.6,31.3,18.8,82,36,17,29.59,29.26,15,4,17,0.00
2013-10-19,63.5,53.2,40.6,46.4,27.4,18.7,68,39,18,29.59,29.35,9,1,13,0.04
2013-10-20,65.1,54.1,42.1,49.7,24.8,12.7,77,36,15,29.65,29.32,15,3,16,0.00
2013-10-21,68.5,51.5,36.3,30.1,22.7,14.6,58,36,15,29.68,29.59,10,2,11,0.00
2013-10-22,68.9,52.8,41.4,45.3,30.1,23.8,71,44,20,29.59,29.35,11,2,14,0.00
2013-10-23,53.1,45.0,35.6,31.1,20.2,11.3,70,40,21,29.41,29.23,8,2,14,0.00
2013-10-24,56.3,45.8,37.6,22.4,13.7,7.0,51,29,17,29.53,29.32,13,4,17,0.00
2013-10-25,53.8,42.8,32.2,17.9,13.4,9.5,55,31,18,29.77,29.53,13,3,17,0.00
2013-10-26,56.8,43.2,30.4,24.9,14.7,9.7,59,35,17,29.77,29.47,15,3,20,0.00
2013-10-27,59.4,48.8,38.5,22.3,15.7,10.0,51,28,17,29.65,29.38,13,3,17,0.00
2013-10-28,63.7,47.6,32.5,21.1,16.2,11.7,55,31,16,29.91,29.65,11,2,17,0.00
2013-10-29,54.5,43.7,35.8,16.3,11.8,7.0,43,28,20,30.00,29.88,8,2,9,0.00
2013-10-30,57.0,45.5,35.4,30.9,22.5,14.0,66,41,27,29.94,29.80,5,0,6,0.00
2013-10-31,63.3,52.7,37.0,56.1,42.3,24.2,83,68,48,29.83,29.44,12,2,14,0.04
2013-11-1,69.3,62.3,52.2,58.7,45.5,27.3,87,58,23,29.44,29.18,15,4,17,0.16
2013-11-2,69.6,54.3,45.0,48.5,31.8,19.1,85,48,17,29.38,29.23,11,1,12,0.00
2013-11-3,49.5,43.2,33.3,29.9,15.2,-0.5,51,33,21,29.97,29.38,17,5,19,0.00
2013-11-4,48.0,35.7,28.6,7.7,2.8,-1.4,33,25,19,30.21,29.97,12,2,16,0.04
2013-11-5,55.8,41.7,30.2,25.1,15.7,5.0,51,35,22,30.24,30.06,8,1,10,0.00
2013-11-6,59.9,49.8,36.3,50.2,29.6,22.5,83,49,25,30.06,29.65,11,2,14,0.00
2013-11-7,62.8,54.0,38.8,55.6,40.7,18.5,89,62,39,29.68,29.35,13,4,17,0.31
2013-11-8,50.2,40.8,32.7,23.3,13.4,8.0,61,34,19,29.74,29.47,14,3,24,0.00
2013-11-9,51.3,39.7,28.9,18.8,13.4,6.5,55,36,19,29.80,29.56,8,1,11,0.00
2013-11-10,58.3,47.6,44.1,26.1,17.5,9.3,45,30,19,29.56,29.32,15,4,22,0.00
2013-11-11,55.9,46.7,35.8,15.6,11.0,8.1,42,24,17,29.74,29.50,15,4,21,0.00
2013-11-12,50.4,35.9,28.6,24.9,10.0,0.7,68,35,21,29.83,29.53,13,5,21,0.12
2013-11-13,40.3,30.5,24.1,3.5,0.9,-1.9,35,28,21,29.91,29.80,20,4,20,0.00
2013-11-14,55.6,38.1,25.2,12.5,6.1,2.2,43,27,17,29.80,29.68,15,3,17,0.00
2013-11-15,59.4,40.1,26.6,15.1,10.0,4.9,45,31,17,29.83,29.71,8,1,13,0.00
2013-11-16,63.7,45.8,32.5,32.2,20.4,14.1,72,39,16,29.88,29.77,8,1,11,0.00
2013-11-17,59.9,53.0,40.3,58.2,49.0,24.8,95,86,72,29.85,29.38,8,3,11,0.00
2013-11-18,67.3,59.0,48.7,60.6,28.0,8.3,95,39,15,29.41,29.18,16,6,20,0.35
2013-11-19,50.4,41.9,33.1,8.6,4.5,-1.0,25,21,19,29.88,29.32,24,7,25,0.00
2013-11-20,44.8,33.5,25.0,6.2,0.2,-3.6,35,24,20,30.15,29.88,13,3,15,0.00
2013-11-21,49.6,36.6,21.2,19.5,9.5,0.6,47,33,21,30.18,29.97,8,1,10,0.00
2013-11-22,53.8,48.1,42.4,46.6,33.9,19.0,86,59,39,29.97,29.47,8,1,11,0.08
2013-11-23,52.2,41.6,29.3,33.3,8.7,-3.9,49,26,19,29.59,29.44,15,6,20,0.00
2013-11-24,31.1,24.8,21.9,-4.1,-6.9,-8.5,25,24,23,29.74,29.44,31,9,31,0.00
2013-11-25,38.7,26.9,14.2,2.1,-3.6,-11.0,44,26,21,30.00,29.74,13,2,13,0.00
2013-11-26,44.8,36.1,32.5,41.7,10.3,-1.3,90,39,21,29.91,29.44,8,2,11,0.12
2013-11-27,62.6,49.0,35.2,60.7,39.4,8.4,95,71,32,29.50,28.94,21,6,32,3.94
2013-11-28,36.9,30.5,25.3,8.0,0.1,-4.2,41,27,22,30.00,29.21,20,5,24,0.00
2013-11-29,40.5,29.6,22.1,8.5,3.7,-1.6,45,34,21,30.27,29.97,10,2,13,0.00
2013-11-30,35.4,27.0,19.0,6.3,-0.3,-6.9,44,31,22,30.27,29.91,6,1,9,0.00
2013-12-1,50.2,39.0,32.5,21.3,14.7,5.4,53,37,27,29.94,29.53,5,1,6,0.00
2013-12-2,46.9,35.1,30.6,26.5,20.0,14.0,70,55,27,29.56,29.47,4,0,5,0.00
2013-12-3,54.3,36.8,28.2,26.2,19.2,14.3,76,52,23,29.56,29.44,7,1,11,0.00
2013-12-4,55.2,39.4,28.9,24.4,18.6,13.2,72,45,23,29.74,29.56,7,1,8,0.00
2013-12-5,56.7,51.2,40.6,55.2,46.5,22.3,95,85,50,29.74,29.56,6,1,8,0.04
2013-12-6,55.9,46.5,36.3,54.2,36.4,18.0,96,70,38,29.74,29.47,11,3,13,0.39
2013-12-7,40.6,34.9,29.1,28.3,14.3,3.9,73,44,28,30.03,29.65,13,3,15,0.20
2013-12-8,31.6,28.4,21.9,15.8,4.4,1.5,60,36,28,30.09,29.91,10,2,10,0.00
2013-12-9,36.7,32.7,27.5,31.7,26.2,13.7,83,77,61,29.91,29.53,8,1,12,0.08
2013-12-10,35.8,31.0,21.9,29.7,19.9,6.6,81,64,42,29.62,29.41,0,0,0,0.00
2013-12-11,35.1,26.7,20.1,7.7,2.6,-0.4,52,36,25,29.85,29.59,0,0,0,0.00
2013-12-12,29.7,21.8,13.6,0.1,-5.0,-9.3,44,30,23,29.88,29.65,0,0,0,0.00
2013-12-13,35.6,26.0,18.3,2.3,-3.6,-9.2,36,27,22,29.88,29.59,14,4,19,0.00
2013-12-14,24.3,19.1,15.3,9.4,1.2,-6.5,61,46,27,30.03,29.44,11,5,15,0.00
2013-12-15,38.7,30.6,21.4,25.5,16.1,5.3,79,56,32,29.53,29.00,14,4,19,0.00
2013-12-16,32.5,24.1,11.7,10.2,-2.8,-10.1,54,31,23,29.77,29.29,17,4,19,0.00
2013-12-17,21.4,16.5,7.3,8.7,-0.9,-14.0,58,46,36,29.74,29.47,9,2,13,0.00
2013-12-18,37.6,27.6,19.8,6.9,4.1,2.0,50,37,24,29.68,29.44,10,3,15,0.00
2013-12-19,48.2,34.0,22.6,17.4,7.7,2.6,51,34,19,29.71,29.59,11,3,15,0.16
2013-12-20,49.5,39.1,30.7,19.7,15.8,12.4,56,40,24,29.68,29.53,8,1,11,0.63
2013-12-21,58.8,44.2,34.9,45.7,29.0,18.7,88,57,28,29.56,29.47,9,2,11,0.04
2013-12-22,64.4,57.2,48.9,62.4,49.4,37.8,95,78,42,29.56,29.38,14,4,20,0.00
2013-12-23,58.5,51.6,37.9,57.0,44.4,15.2,95,78,39,29.71,29.50,14,3,17,0.67
2013-12-24,39.4,33.1,25.5,15.4,4.7,-4.6,48,30,21,29.74,29.65,13,5,17,0.00
2013-12-25,29.3,23.0,17.6,-1.2,-7.1,-12.1,33,26,23,30.06,29.71,15,4,20,0.00
2013-12-26,36.5,28.5,23.9,11.0,6.0,-5.1,53,38,29,30.00,29.71,8,1,13,0.00
2013-12-27,41.7,30.0,20.8,9.8,5.0,1.0,56,36,21,29.88,29.77,10,2,13,0.00
2013-12-28,52.5,35.7,24.4,13.2,9.0,4.7,53,34,18,29.83,29.59,13,3,17,0.00
2013-12-29,42.3,37.4,30.6,38.3,23.9,12.6,87,60,32,29.62,28.97,11,2,15,0.00
2013-12-30,41.7,31.9,19.2,32.3,11.8,-8.8,82,47,25,29.74,29.12,13,3,17,1.22
2013-12-31,31.5,23.5,16.0,4.1,-3.9,-7.9,36,30,24,29.77,29.62,11,3,17,0.00
2014-1-1,33.6,26.2,19.2,1.9,-3.6,-9.3,33,27,23,29.94,29.77,11,2,12,0.00
2014-1-2,27.5,20.2,10.2,7.7,2.4,-4.7,54,46,32,29.83,29.26,14,6,18,0.00